GW0870 Weather Reports


time (UTC)temp
C
wind
direction
speed
KPH
gust
KPH
rain 1hr
cm
rain 24hr
cm
rain mn
cm
humidity
%
barometer
mb
20260905174600 36 94 0.0 3.2 0.00 0.00 0.00 49 1011.9
20260905173057 36 333 0.0 6.4 0.00 0.00 0.00 52 1012.2
20260905171604 36 0 0.0 3.2 0.00 0.00 0.00 51 1012.5
20260905170100 35 86 0.0 4.8 0.00 0.00 0.00 56 1012.8
20260905164555 35 212 1.6 12.9 0.00 0.00 0.00 54 1012.9
20260905163054 35 239 3.2 8.0 0.00 0.00 0.00 54 1013.2
20260905161550 34 159 3.2 9.7 0.00 0.00 0.00 55 1013.2
20260905160058 34 212 1.6 6.4 0.00 0.00 0.00 56 1013.3
20260905154557 33 203 1.6 6.4 0.00 0.00 0.00 60 1013.5
20260905153051 32 126 1.6 6.4 0.00 0.00 0.00 61 1013.5
20260905151602 32 188 3.2 6.4 0.00 0.00 0.00 66 1013.5
20260905150055 32 219 1.6 3.2 0.00 0.00 0.00 68 1013.6
20260905144555 31 140 0.0 3.2 0.00 0.00 0.00 70 1013.6
20260905143050 30 156 1.6 6.4 0.00 0.00 0.00 73 1013.6
20260905141550 30 244 0.0 3.2 0.00 0.00 0.00 72 1013.7
20260905140059 30 152 0.0 3.2 0.00 0.00 0.00 74 1013.7
20260905134557 30 0 0.0 1.6 0.00 0.00 0.00 74 1013.9
20260905133051 28 0 0.0 1.6 0.00 0.00 0.00 78 1013.9
20260905131556 27 0 0.0 1.6 0.00 0.00 0.00 85 1014.1
20260905130057 25 0 0.0 1.6 0.00 0.00 0.00 89 1014.1
20260905124551 23 0 0.0 0.0 0.00 0.00 0.00 94 1014.3
20260905123106 23 0 0.0 0.0 0.00 0.00 0.00 94 1014.1
20260905121554 22 0 0.0 0.0 0.00 0.00 0.00 94 1014.1
20260905114608 22 0 0.0 0.0 0.00 0.00 0.00 94 1014.0
20260905113051 22 0 0.0 0.0 0.00 0.00 0.00 94 1013.6
20260905111605 22 0 0.0 0.0 0.00 0.00 0.00 94 1013.3
20260905104558 22 0 0.0 0.0 0.00 0.00 0.00 93 1012.9
20260905103101 22 0 0.0 0.0 0.00 0.00 0.00 93 1012.8
20260905101552 22 0 0.0 0.0 0.00 0.00 0.00 93 1012.9
20260905100105 22 0 0.0 0.0 0.00 0.00 0.00 93 1012.6
20260905094605 22 0 0.0 0.0 0.00 0.00 0.00 93 1012.7
20260905093102 22 0 0.0 1.6 0.00 0.00 0.00 93 1012.8
20260905091600 22 0 0.0 0.0 0.00 0.00 0.00 92 1012.9
20260905090057 22 0 0.0 0.0 0.00 0.00 0.00 92 1012.9
20260905084555 23 0 0.0 0.0 0.00 0.00 0.00 92 1012.9
20260905083049 23 0 0.0 0.0 0.00 0.00 0.00 91 1013.1
20260905081611 23 0 0.0 1.6 0.00 0.00 0.00 91 1013.2
20260905080057 23 0 0.0 0.0 0.00 0.00 0.00 91 1013.2
20260905074603 23 0 0.0 1.6 0.00 0.00 0.00 91 1013.3
20260905073100 23 0 0.0 1.6 0.00 0.00 0.00 91 1013.2
20260905071601 23 0 0.0 0.0 0.00 0.00 0.00 91 1013.4
20260905070055 23 0 0.0 0.0 0.00 0.00 0.00 91 1013.5
20260905064557 24 0 0.0 0.0 0.00 0.00 0.00 91 1013.8
20260905063105 24 0 0.0 0.0 0.00 0.00 0.00 91 1014.1
20260905061609 24 0 0.0 0.0 0.00 0.00 0.00 92 1014.3
20260905060053 24 0 0.0 0.0 0.00 0.00 0.00 92 1014.5
20260905054559 24 0 0.0 0.0 0.00 0.00 0.00 91 1014.6
20260905053057 24 0 0.0 0.0 0.00 0.00 0.00 91 1014.7
20260905051556 24 0 0.0 0.0 0.00 0.00 0.00 91 1014.9
20260905050053 24 0 0.0 0.0 0.00 0.00 0.00 90 1014.9
20260905044600 24 0 0.0 0.0 0.00 0.00 0.00 90 1015.0
20260905043115 25 0 0.0 0.0 0.00 0.00 0.00 90 1015.0
20260905041555 25 0 0.0 0.0 0.00 0.00 0.00 89 1015.0
20260905040115 25 0 0.0 0.0 0.00 0.00 0.00 89 1014.7
20260905034558 25 0 0.0 0.0 0.00 0.00 0.00 88 1014.7
20260905033102 25 0 0.0 0.0 0.00 0.00 0.00 87 1014.7
20260905031600 26 0 0.0 0.0 0.00 0.00 0.00 86 1014.6
20260905030055 26 0 0.0 0.0 0.00 0.00 0.00 85 1014.5
20260905024551 26 0 0.0 0.0 0.00 0.00 0.00 85 1014.7
20260905023058 26 0 0.0 0.0 0.00 0.00 0.00 85 1014.7
20260905021552 27 0 0.0 0.0 0.00 0.00 0.00 83 1014.7
20260905020055 27 0 0.0 0.0 0.00 0.00 0.00 81 1014.6
20260905014557 27 0 0.0 0.0 0.00 0.00 0.00 79 1014.7
20260905013101 27 0 0.0 0.0 0.00 0.00 0.00 78 1014.4
20260905011553 28 0 0.0 1.6 0.00 0.00 0.00 78 1014.5
20260905010054 28 0 0.0 0.0 0.00 0.00 0.00 83 1014.5
20260905004600 28 0 0.0 0.0 0.00 0.00 0.00 82 1014.4
20260905003051 28 0 0.0 1.6 0.00 0.00 0.00 81 1014.4
20260905001554 29 0 0.0 0.0 0.00 0.00 0.00 79 1014.6
20260904234556 31 0 0.0 0.0 0.00 0.00 0.00 73 1014.3
20260904233053 32 0 0.0 0.0 0.00 0.00 0.00 69 1014.2
20260904231600 33 0 0.0 0.0 0.00 0.00 0.00 64 1013.9
20260904230056 33 0 0.0 1.6 0.00 0.00 0.00 58 1013.9
20260904224601 34 0 0.0 1.6 0.00 0.00 0.00 55 1013.8
20260904223059 35 217 0.0 4.8 0.00 0.00 0.00 54 1013.7
20260904221555 35 200 1.6 6.4 0.00 0.00 0.00 52 1013.7
20260904220112 35 213 0.0 8.0 0.00 0.00 0.00 52 1014.0
20260904214552 36 236 1.6 8.0 0.00 0.00 0.00 51 1014.1
20260904213055 36 246 3.2 8.0 0.00 0.00 0.00 51 1013.9
20260904211608 36 150 1.6 9.7 0.00 0.00 0.00 52 1014.0
20260904210053 36 226 3.2 8.0 0.00 0.00 0.00 50 1013.7
20260904204555 36 242 3.2 8.0 0.00 0.00 0.00 52 1014.1
20260904203055 36 163 1.6 8.0 0.00 0.00 0.00 51 1014.2
20260904201551 35 252 4.8 14.5 0.00 0.00 0.00 50 1014.2
20260904200100 36 0 3.2 11.3 0.00 0.00 0.00 51 1014.4
20260904194603 36 204 1.6 4.8 0.00 0.00 0.00 49 1014.7
20260904193110 36 196 3.2 11.3 0.00 0.00 0.00 48 1015.1
20260904191554 36 0 3.2 8.0 0.00 0.00 0.00 48 1015.4
20260904190059 36 155 3.2 6.4 0.00 0.00 0.00 49 1015.6
20260904184559 37 205 0.0 3.2 0.00 0.00 0.00 49 1015.7
20260904183108 36 0 0.0 4.8 0.00 0.00 0.00 51 1015.9
20260904181602 35 138 1.6 6.4 0.00 0.00 0.00 53 1016.0
20260904180123 35 153 3.2 6.4 0.00 0.00 0.00 55 1016.2